Location: Battersea Observatory
(44.4318°N, 76.3841°W)
Time: 16:39:40
(UTC-05:00)

X-37B - Pass Details

Date: 07 December 2021
Orbit: 334 x 337 km, 45.0° (Epoch: 11 January)

Event Time Altitude Azimuth Distance (km) Brightness Sun altitude
Rises 18:18:56 0° 237° (WSW) 2,095 5.6 -19.4°
Reaches altitude 10° 18:20:59 10° 230° (SW) 1,261 4.1 -19.8°
Enters shadow 18:22:58 33° 197° (SSW) 584 1.7 -20.1°
